Location: Dover
(39.1580°N, 75.5250°W)
Time: 04:07:07
(UTC-04:00)

SeaSat 1 - Visible Passes

Search period start: 17 April 2014 00:00
Search period end: 27 April 2014 00:00
Orbit: 748 x 749 km, 108.0° (Epoch: 16 April)

Date Brightness Start Highest point End Pass type
(mag) Time Alt. Az. Time Alt. Az. Time Alt. Az.
17 Apr 5.0 02:07:49 10° ENE 02:08:51 14° ENE 02:08:51 14° ENE visible
17 Apr 3.1 03:44:32 10° NNE 03:48:42 45° NW 03:48:42 45° NW visible
18 Apr 3.4 03:03:04 10° NNE 03:06:31 44° NE 03:06:31 44° NE visible
18 Apr 4.1 04:41:48 10° N 04:45:04 18° NW 04:46:22 16° WNW visible
19 Apr 4.7 02:22:27 10° NE 02:24:21 19° ENE 02:24:21 19° ENE visible
19 Apr 3.0 03:59:28 10° NNE 04:04:06 42° WNW 04:04:12 42° WNW visible
20 Apr 2.8 03:17:54 10° NNE 03:22:02 60° NE 03:22:02 60° NE visible
20 Apr 4.3 04:56:53 10° NNW 04:59:51 16° NW 05:01:53 13° WNW visible
21 Apr 4.3 02:37:08 10° NE 02:39:52 24° E 02:39:52 24° E visible
21 Apr 3.2 04:14:24 10° N 04:18:55 37° WNW 04:19:43 35° W visible
22 Apr 2.4 03:32:44 10° NNE 03:37:34 83° ENE 03:37:34 83° ENE visible
22 Apr 4.4 05:12:01 10° NNW 05:14:38 15° NW 05:17:14 10° W visible
23 Apr 3.9 02:51:51 10° NE 02:55:24 30° E 02:55:24 30° E visible
23 Apr 3.4 04:29:20 10° N 04:33:44 33° NW 04:35:15 27° W visible
24 Apr 5.1 02:13:09 10° E 02:13:15 10° E 02:13:15 10° E visible
24 Apr 2.3 03:47:35 10° NNE 03:52:33 85° WNW 03:53:06 71° SW visible
24 Apr 4.5 05:27:13 10° NNW 05:29:24 13° NW 05:31:34 10° WNW visible
25 Apr 3.5 03:06:34 10° NE 03:10:57 36° ESE 03:10:57 36° ESE visible
25 Apr 3.5 04:44:17 10° N 04:48:32 30° NW 04:50:48 21° W visible
26 Apr 4.9 02:27:12 10° ENE 02:28:49 13° E 02:28:49 13° E visible
26 Apr 2.4 04:02:27 10° NNE 04:07:23 75° WNW 04:08:39 50° SW visible
26 Apr 4.6 05:42:32 10° NNW 05:44:09 12° NW 05:45:46 10° WNW visible
